This demonstration page uses our WeatherBlox Daily Observations layout. Learn more.

Left ArrowRight Arrow

Hourly Observations for September 29, 2018

Temp ( °F °C ) Dew Point ( °F °C ) Humidity (%) Winds ( mph kmh ) Pressure ( in mb ) Visibility ( mi km ) Precip ( " mm )
12:53 am 00:53 Clear 67 19.4 64 17.8 91 91 SE 14 22 29.93 1013 10 16 0.00 0.00
1:53 am 01:53 Clear 66 18.9 64 17.8 93 93 SE 13 20 29.93 1013 8 13 0.00 0.00
2:53 am 02:53 Clear 65 18.3 63 17.2 93 93 SE 14 22 29.93 1014 8 13 0.00 0.00
3:53 am 03:53 Clear 65 18.3 63 17.2 93 93 SE 13 20 29.93 1014 7 11 0.00 0.00
4:53 am 04:53 Clear 65 18.3 63 17.2 93 93 SE 10 17 29.94 1014 7 11 0.00 0.00
5:53 am 05:53 Clear 65 18.3 63 17.2 93 93 SE 10 17 29.95 1014 10 16 0.00 0.00
6:53 am 06:53 Partly Cloudy 63 17.2 62 16.7 97 97 N 7 11 29.99 1016 7 11 0.00 0.00
7:02 am 07:02 Mostly Cloudy 64 17.8 63 17.2 96 96 NNE 6 9 30.03 1017 8 13 0.00 0.00
7:49 am 07:49 Partly Cloudy 64 18 63 17 94 94 NE 7 11 30.03 1017 8 13 0.00 0.00
7:53 am 07:53 Mostly Cloudy 64 17.8 63 17.2 96 96 NE 6 9 30.00 1016 8 13 0.00 0.00
8:46 am 08:46 Cloudy 66 18.9 64 17.8 93 93 NE 9 15 30.03 1017 9 14 0.00 0.00
8:53 am 08:53 Cloudy 67 19.4 64 17.8 91 91 ENE 9 15 30.02 1017 10 16 0.00 0.00
9:53 am 09:53 Cloudy 68 20 64 17.8 87 87 ENE 8 13 30.02 1017 10 16 0.00 0.00
10:53 am 10:53 Cloudy 70 21.1 63 17.2 79 79 ESE 5 7 30.04 1017 10 16 0.00 0.00
11:19 am 11:19 Cloudy 71 21.7 63 17.2 76 76 E 6 9 30.03 1017 10 16 0.00 0.00
11:53 am 11:53 Cloudy 72 22.2 63 17.2 73 73 ESE 5 7 30.03 1017 10 16 0.00 0.00
12:53 pm 12:53 Cloudy 74 23.3 64 17.8 71 71 Calm 30.02 1017 10 16 0.00 0.00
1:45 pm 13:45 Partly Cloudy 78 25.6 64 17.8 62 62 VRB 5 7 29.94 1014 10 16 0.00 0.00
1:53 pm 13:53 Mostly Sunny 79 26.1 64 17.8 60 60 E 5 7 29.98 1015 10 16 0.00 0.00
2:53 pm 14:53 Sunny 82 27.8 64 17.8 55 55 E 6 9 29.94 1014 10 16 0.00 0.00
3:53 pm 15:53 Sunny 85 29.4 64 17.8 50 50 Calm 29.91 1013 10 16 0.00 0.00
4:53 pm 16:53 Sunny 86 30 62 16.7 45 45 SE 9 15 29.89 1012 10 16 0.00 0.00
5:53 pm 17:53 Sunny 85 29.4 60 15.6 43 43 SE 7 11 29.89 1012 10 16 0.00 0.00
6:53 pm 18:53 Sunny 83 28.3 61 16.1 48 48 SE 7 11 29.90 1013 10 16 0.00 0.00
7:53 pm 19:53 Clear 78 25.6 63 17.2 60 60 SE 8 13 29.91 1013 10 16 0.00 0.00
8:53 pm 20:53 Clear 76 24.4 62 16.7 62 62 SE 10 17 29.93 1013 10 16 0.00 0.00
9:53 pm 21:53 Clear 73 22.8 63 17.2 71 71 SE 9 15 29.95 1014 10 16 0.00 0.00
10:53 pm 22:53 Clear 71 21.7 63 17.2 76 76 SSE 8 13 29.96 1015 10 16 0.00 0.00
11:53 pm 23:53 Clear 68 20 63 17.2 84 84 SE 9 15 29.97 1015 10 16 0.00 0.00

Powered by AerisWeather